This is the latest recevied weather packets stored in our database for station/object JH7UAX-10. If no packets are shown the sender has not sent any weather packets the latest 10 day(s).
| Time | Temp. | Humidity | Pressure | Rain* | Wind** | Luminosity | Snow |
|---|---|---|---|---|---|---|---|
| 1778121005 | 22.22° C | 57% | 1023.6 hPa | 0 mm | - | - | - |
| 1778120578 | 21.67° C | 58% | 1023.7 hPa | 0 mm | - | - | - |
| 1778120106 | 22.22° C | 58% | 1023.7 hPa | 0 mm | - | - | - |
| 1778119677 | 22.78° C | 54% | 1023.9 hPa | 0 mm | - | - | - |
| 1778119205 | 22.78° C | 52% | 1023.9 hPa | 0 mm | - | - | - |
| 1778118779 | 22.78° C | 53% | 1023.8 hPa | 0 mm | - | - | - |
| 1778118305 | 22.78° C | 53% | 1023.8 hPa | 0 mm | - | - | - |
| 1778117879 | 23.33° C | 53% | 1023.8 hPa | 0 mm | - | - | - |
| 1778117405 | 23.33° C | 50% | 1023.9 hPa | 0 mm | - | - | - |
| 1778116979 | 22.78° C | 53% | 1023.9 hPa | 0 mm | - | - | - |
| 1778116504 | 22.78° C | 52% | 1023.9 hPa | 0 mm | - | - | - |
| 1778116078 | 22.78° C | 52% | 1023.8 hPa | 0 mm | - | - | - |
| 1778115606 | 22.22° C | 52% | 1023.9 hPa | 0 mm | - | - | - |
| 1778115178 | 22.78° C | 51% | 1024 hPa | 0 mm | - | - | - |
| 1778114706 | 22.78° C | 52% | 1024.1 hPa | 0 mm | - | - | - |
| 1778114278 | 22.22° C | 52% | 1024.1 hPa | 0 mm | - | - | - |
| 1778113806 | 22.22° C | 51% | 1024.2 hPa | 0 mm | - | - | - |
| 1778113377 | 22.22° C | 51% | 1024.3 hPa | 0 mm | - | - | - |
| 1778112905 | 22.22° C | 52% | 1024.3 hPa | 0 mm | - | - | - |
| 1778112477 | 21.67° C | 52% | 1024.3 hPa | 0 mm | - | - | - |
| 1778112005 | 21.67° C | 51% | 1024.3 hPa | 0 mm | - | - | - |
| 1778111579 | 21.67° C | 52% | 1024.5 hPa | 0 mm | - | - | - |
| 1778111105 | 21.67° C | 53% | 1024.5 hPa | 0 mm | - | - | - |
| 1778110679 | 21.67° C | 53% | 1024.7 hPa | 0 mm | - | - | - |
| 1778110205 | 21.11° C | 55% | 1024.8 hPa | 0 mm | - | - | - |
* Rain latest hour (hover to see other rain measurements)
** Current wind speed in m/s (hover to see current wind gust speed)